Weather History for Creston, IA

Change the Weather History Date:

Thursday, October 11, 2012

  Actual Average Record
Temperature  
Mean Temperature 52 °F -  
Max Temperature 66 °F 65 °F 85 °F (1960)
Min Temperature 39 °F 41 °F 22 °F (1987)
Degree Days  
Heating Degree Days 12    
Growing Degree Days 2 (Base 50)    
Moisture  
Dew Point 31 °F    
Average Humidity 46    
Maximum Humidity 70    
Minimum Humidity 27    
Precipitation  
Precipitation 0.00 in - - ()
Sea Level Pressure  
Sea Level Pressure 30.12 in    
Wind  
Wind Speed 12 mph (SW)    
Max Wind Speed 21 mph    
Max Gust Speed 26 mph    
Visibility 10 miles    
Events      
Averages and records for this station are not official NWS values.
T = Trace of Precipitation, MM = Missing Value Source: NWS Daily Summary

Daily Weather History Graph

Daily Weather History Graph

Search for Another Location

Airport:

Trip Planner

Search our weather history database for the weather conditions in past years. The results will help you decide how hot, cold, wet, or windy it might be!

Date:

Astronomy

Oct. 11, 2012 Rise Set
Actual Time 7:25 AM CDT 6:42 PM CDT
Civil Twilight 6:57 AM CDT 7:09 PM CDT
Nautical Twilight 6:25 AM CDT 7:41 PM CDT
Astronomical Twilight 5:53 AM CDT 8:13 PM CDT
Moon 3:02 AM CDT (10/11) 4:20 PM CDT (10/11)
Length of Visible Light 12h 12m
Length of Day
11h 17m
Waning Crescent, 18% of the Moon is Illuminated
Oct 11
Waning Crescent
Oct 15
New
Oct 21
First Quarter
Oct 29
Full
Nov 6
Last Quarter

Hourly Weather History & Observations

Time (CDT) Temp. Windchill Dew Point Humidity Pressure Visibility Wind Dir Wind Speed Gust Speed Precip Events Conditions
12:15 AM 44.6 °F 38.4 °F 26.6 °F 49% 30.09 in 10.0 mi South 12.7 mph - N/A   Clear
12:35 AM 44.6 °F 38.1 °F 26.6 °F 49% 30.08 in 10.0 mi South 13.8 mph - N/A   Clear
12:55 AM 46.4 °F 40.4 °F 26.6 °F 46% 30.08 in 10.0 mi SSW 13.8 mph - N/A   Clear
1:15 AM 44.6 °F 38.4 °F 26.6 °F 49% 30.08 in 10.0 mi SSW 12.7 mph - N/A   Clear
1:35 AM 44.6 °F 38.4 °F 26.6 °F 49% 30.08 in 10.0 mi SSW 12.7 mph - N/A   Clear
1:55 AM 44.6 °F 38.1 °F 28.4 °F 53% 30.08 in 10.0 mi SSW 13.8 mph - N/A   Clear
2:15 AM 44.6 °F 38.1 °F 28.4 °F 53% 30.08 in 10.0 mi SSW 13.8 mph - N/A   Clear
2:55 AM 44.6 °F 38.8 °F 28.4 °F 53% 30.08 in 10.0 mi SSW 11.5 mph - N/A   Clear
3:15 AM 44.6 °F 38.4 °F 28.4 °F 53% 30.07 in 10.0 mi SSW 12.7 mph - N/A   Clear
3:35 AM 44.6 °F 38.4 °F 30.2 °F 57% 30.06 in 10.0 mi SSW 12.7 mph - N/A   Clear
3:55 AM 44.6 °F 38.4 °F 30.2 °F 57% 30.06 in 10.0 mi SSW 12.7 mph - N/A   Clear
4:15 AM 44.6 °F 38.8 °F 30.2 °F 57% 30.06 in 10.0 mi SSW 11.5 mph 17.3 mph N/A   Clear
4:35 AM 42.8 °F 37.5 °F 30.2 °F 61% 30.06 in 10.0 mi SSW 9.2 mph - N/A   Clear
4:55 AM 42.8 °F 37.0 °F 30.2 °F 61% 30.06 in 10.0 mi South 10.4 mph - N/A   Clear
5:15 AM 42.8 °F 36.6 °F 30.2 °F 61% 30.06 in 10.0 mi South 11.5 mph - N/A   Clear
5:35 AM 41.0 °F 34.7 °F 30.2 °F 65% 30.06 in 10.0 mi South 10.4 mph - N/A   Clear
5:55 AM 39.2 °F 33.0 °F 30.2 °F 70% 30.06 in 10.0 mi South 9.2 mph - N/A   Clear
6:15 AM 39.2 °F 33.6 °F 30.2 °F 70% 30.06 in 10.0 mi South 8.1 mph - N/A   Clear
6:35 AM 39.2 °F 34.2 °F 30.2 °F 70% 30.06 in 10.0 mi South 6.9 mph - N/A   Clear
6:55 AM 39.2 °F 34.2 °F 30.2 °F 70% 30.06 in 10.0 mi South 6.9 mph - N/A   Clear
7:15 AM 39.2 °F 34.2 °F 30.2 °F 70% 30.06 in 10.0 mi South 6.9 mph - N/A   Clear
7:35 AM 39.2 °F 34.2 °F 30.2 °F 70% 30.07 in 10.0 mi South 6.9 mph - N/A   Clear
7:55 AM 39.2 °F 33.6 °F 30.2 °F 70% 30.08 in 10.0 mi South 8.1 mph - N/A   Clear
8:15 AM 42.8 °F 38.6 °F 32.0 °F 66% 30.08 in 10.0 mi South 6.9 mph - N/A   Clear
8:35 AM 44.6 °F 41.4 °F 32.0 °F 61% 30.09 in 10.0 mi South 5.8 mph - N/A   Clear
8:55 AM 46.4 °F 41.5 °F 32.0 °F 57% 30.09 in 10.0 mi SSW 10.4 mph - N/A   Clear
9:15 AM 48.2 °F - 32.0 °F 54% 30.09 in 10.0 mi SSW 11.5 mph - N/A   Clear
9:35 AM 51.8 °F - 32.0 °F 47% 30.09 in 10.0 mi South 12.7 mph - N/A   Clear
9:55 AM 53.6 °F - 32.0 °F 44% 30.08 in 10.0 mi SSW 12.7 mph - N/A   Clear
10:15 AM 57.2 °F - 32.0 °F 38% 30.08 in 10.0 mi SW 15.0 mph - N/A   Clear
10:35 AM 60.8 °F - 32.0 °F 34% 30.09 in 10.0 mi SW 11.5 mph - N/A   Clear
10:55 AM 60.8 °F - 32.0 °F 34% 30.10 in 10.0 mi SW 13.8 mph 18.4 mph N/A   Clear
11:15 AM 62.6 °F - 33.8 °F 34% 30.10 in 10.0 mi West 13.8 mph 17.3 mph N/A   Clear
11:35 AM 64.4 °F - 35.6 °F 34% 30.10 in 10.0 mi WSW 13.8 mph - N/A   Mostly Cloudy
11:55 AM 64.4 °F - 35.6 °F 34% 30.10 in 10.0 mi West 12.7 mph 18.4 mph N/A   Scattered Clouds
12:15 PM 64.4 °F - 35.6 °F 34% 30.09 in 10.0 mi West 10.4 mph - N/A   Scattered Clouds
12:55 PM 66.2 °F - 37.4 °F 35% 30.08 in 10.0 mi West 9.2 mph - N/A   Clear
1:15 PM 66.2 °F - 37.4 °F 35% 30.08 in 10.0 mi West 6.9 mph - N/A   Scattered Clouds
1:35 PM 66.2 °F - 37.4 °F 35% 30.08 in 10.0 mi West 9.2 mph - N/A   Overcast
1:55 PM 66.2 °F - 37.4 °F 35% 30.08 in 10.0 mi WNW 11.5 mph - N/A   Mostly Cloudy
2:15 PM 66.2 °F - 37.4 °F 35% 30.08 in 10.0 mi NW 9.2 mph - N/A   Overcast
2:35 PM 66.2 °F - 37.4 °F 35% 30.08 in 10.0 mi NW 5.8 mph - N/A   Mostly Cloudy
2:55 PM 66.2 °F - 37.4 °F 35% 30.08 in 10.0 mi NNW 5.8 mph - N/A   Mostly Cloudy
3:15 PM 66.2 °F - 37.4 °F 35% 30.09 in 10.0 mi NNW 4.6 mph - N/A   Mostly Cloudy
3:35 PM 66.2 °F - 35.6 °F 32% 30.08 in 10.0 mi North 6.9 mph - N/A   Overcast
3:55 PM 64.4 °F - 33.8 °F 32% 30.09 in 10.0 mi North 12.7 mph - N/A   Overcast
4:15 PM 64.4 °F - 30.2 °F 28% 30.10 in 10.0 mi North 15.0 mph 20.7 mph N/A   Mostly Cloudy
4:35 PM 62.6 °F - 28.4 °F 27% 30.11 in 10.0 mi North 16.1 mph - N/A   Scattered Clouds
4:55 PM 60.8 °F - 28.4 °F 29% 30.12 in 10.0 mi North 17.3 mph - N/A   Clear
5:15 PM 59.0 °F - 28.4 °F 31% 30.12 in 10.0 mi NNE 18.4 mph 23.0 mph N/A   Clear
5:35 PM 57.2 °F - 28.4 °F 33% 30.12 in 10.0 mi NNE 18.4 mph 24.2 mph N/A   Clear
5:55 PM 55.4 °F - 28.4 °F 36% 30.13 in 10.0 mi North 19.6 mph 26.5 mph N/A   Clear
6:35 PM 53.6 °F - 28.4 °F 38% 30.18 in 10.0 mi NNE 20.7 mph 25.3 mph N/A   Scattered Clouds
6:55 PM 51.8 °F - 28.4 °F 41% 30.18 in 10.0 mi NNE 18.4 mph 23.0 mph N/A   Scattered Clouds
7:15 PM 51.8 °F - 26.6 °F 38% 30.19 in 10.0 mi NNE 17.3 mph 21.9 mph N/A   Scattered Clouds
7:35 PM 51.8 °F - 28.4 °F 41% 30.20 in 10.0 mi NNE 18.4 mph 24.2 mph N/A   Scattered Clouds
8:15 PM 50.0 °F - 28.4 °F 43% 30.24 in 10.0 mi NNE 18.4 mph 26.5 mph N/A   Overcast
8:35 PM 48.2 °F - 26.6 °F 43% 30.25 in 10.0 mi NNE 15.0 mph 25.3 mph N/A   Overcast
8:55 PM 48.2 °F - 26.6 °F 43% 30.25 in 10.0 mi NNE 15.0 mph 24.2 mph N/A   Overcast
9:15 PM 48.2 °F - 26.6 °F 43% 30.27 in 10.0 mi NNE 18.4 mph - N/A   Overcast
9:55 PM 46.4 °F 40.4 °F 26.6 °F 46% 30.29 in 10.0 mi NNE 13.8 mph 19.6 mph N/A   Overcast
10:55 PM 46.4 °F 39.8 °F 24.8 °F 43% 30.31 in 10.0 mi NE 16.1 mph - N/A   Overcast
11:15 PM 46.4 °F 39.2 °F 24.8 °F 43% 30.32 in 10.0 mi NE 18.4 mph - N/A   Overcast
11:35 PM 46.4 °F 41.1 °F 24.8 °F 43% 30.33 in 10.0 mi NE 11.5 mph - N/A   Overcast
11:55 PM 46.4 °F 40.7 °F 24.8 °F 43% 30.34 in 10.0 mi NNE 12.7 mph 18.4 mph N/A   Overcast